New Orleans Lakefront, LA

3:04 PM CST on November 14, 2019 (GMT -0600)
Lakefront

Weather History for KNEW - September, 2019

Change the Weather History Date:

Sunday, September 29, 2019

  Actual Average Record
Temperature  
Mean Temperature 85 °F 76 °F  
Max Temperature 92 °F 84 °F 94 °F (1980)
Min Temperature 78 °F 68 °F 45 °F (1967)
Degree Days  
Heating Degree Days 0 0  
Month to date heating degree days 0 0  
Since 1 July heating degree days 0 0  
Cooling Degree Days 20 11  
Month to date cooling degree days 596 431  
Year to date cooling degree days 3237 2677  
Growing Degree Days 34 (Base 50)    
Moisture  
Dew Point 74 °F    
Average Humidity 71    
Maximum Humidity 85    
Minimum Humidity 56    
Precipitation  
Precipitation T in 0.13 in 1.25 in (1989)
Month to date precipitation 0.19 4.85  
Year to date precipitation 46.95 49.06  
Snow  
Snow 0.00 in - - ()
Month to date snowfall 0.0  
Since 1 July snowfall 0.0  
Since 1 September snowfall 0.0  
Snow Depth 0.00 in    
Sea Level Pressure  
Sea Level Pressure 30.07 in    
Wind  
Wind Speed 10 mph (ESE)    
Max Wind Speed 20 mph    
Max Gust Speed 25 mph    
Visibility 10 miles    
Events      
T = Trace of Precipitation, MM = Missing Value Source: NWS Daily Summary

Daily Weather History Graph

Daily Weather History Graph

Search for Another Location

Airport or City:

Astronomy

Sep. 29, 2019 Rise Set
Actual Time 6:52 AM CDT 6:48 PM CDT
Civil Twilight 6:28 AM CDT 7:12 PM CDT
Nautical Twilight 6:00 AM CDT 7:39 PM CDT
Astronomical Twilight 5:32 AM CDT 8:07 PM CDT
Moon 7:42 AM CDT (9/29) 7:51 PM CDT (9/29)
Length of Visible Light 12h 43m
Length of Day
11h 55m
New Moon, 1% of the Moon is Illuminated
Sep 29
New Moon
Oct 5
First Quarter
Oct 13
Full
Oct 21
Last Quarter
Oct 27
New

Hourly Weather History & Observations

Time (CDT) Temp. Heat Index Dew Point Humidity Pressure Visibility Wind Dir Wind Speed Gust Speed Precip Events Conditions
12:53 AM 80.1 °F 84.5 °F 73.9 °F 81% 30.04 in 10.0 mi SE 8.1 mph - N/A   Clear
1:53 AM 80.1 °F 84.5 °F 73.9 °F 81% 30.04 in 10.0 mi SE 6.9 mph - N/A   Clear
2:53 AM 78.1 °F - 73.9 °F 87% 30.03 in 10.0 mi SE 5.8 mph - N/A   Clear
3:53 AM 78.1 °F - 73.9 °F 87% 30.03 in 10.0 mi SE 4.6 mph - N/A   Clear
4:53 AM 79.0 °F - 75.0 °F 88% 30.04 in 10.0 mi ESE 5.8 mph - N/A   Clear
5:53 AM 80.1 °F 85.1 °F 75.0 °F 85% 30.06 in 10.0 mi ESE 5.8 mph - N/A   Clear
6:53 AM 81.0 °F 87.3 °F 75.9 °F 85% 30.07 in 10.0 mi East 6.9 mph - N/A   Clear
7:53 AM 81.0 °F 87.3 °F 75.9 °F 85% 30.08 in 10.0 mi East 6.9 mph - N/A   Clear
8:53 AM 82.9 °F 90.2 °F 75.0 °F 77% 30.11 in 10.0 mi East 8.1 mph - N/A   Clear
9:41 AM 84.9 °F 92.1 °F 73.9 °F 69% 30.13 in 10.0 mi East 12.7 mph - N/A   Mostly Cloudy
9:50 AM 84.2 °F 90.9 °F 73.4 °F 70% 30.13 in 10.0 mi ESE 11.5 mph - N/A   Scattered Clouds
9:53 AM 86.0 °F 93.8 °F 73.9 °F 67% 30.11 in 10.0 mi East 10.4 mph - N/A   Scattered Clouds
10:53 AM 87.1 °F 94.5 °F 73.0 °F 63% 30.12 in 10.0 mi East 12.7 mph - N/A   Scattered Clouds
11:53 AM 87.1 °F 94.5 °F 73.0 °F 63% 30.11 in 10.0 mi East 15.0 mph - N/A   Mostly Cloudy
12:53 PM 89.1 °F 98.0 °F 73.9 °F 61% 30.09 in 10.0 mi East 16.1 mph - N/A   Scattered Clouds
1:53 PM 88.0 °F 96.5 °F 73.9 °F 63% 30.06 in 10.0 mi East 17.3 mph 23.0 mph N/A   Scattered Clouds
2:53 PM 88.0 °F 95.6 °F 73.0 °F 61% 30.05 in 10.0 mi East 13.8 mph - N/A   Partly Cloudy
3:53 PM 88.0 °F 95.6 °F 73.0 °F 61% 30.04 in 10.0 mi East 18.4 mph 24.2 mph N/A   Clear
4:53 PM 87.1 °F 93.6 °F 72.0 °F 61% 30.04 in 10.0 mi ESE 13.8 mph 25.3 mph N/A   Clear
5:53 PM 86.0 °F 90.7 °F 70.0 °F 59% 30.04 in 10.0 mi SE 17.3 mph - N/A   Clear
6:53 PM 84.0 °F 88.4 °F 70.0 °F 63% 30.05 in 10.0 mi SE 10.4 mph - N/A   Clear
7:53 PM 82.9 °F 88.8 °F 73.0 °F 72% 30.05 in 10.0 mi SE 8.1 mph - N/A   Clear
8:53 PM 82.0 °F 87.9 °F 73.9 °F 76% 30.07 in 10.0 mi ESE 8.1 mph - N/A   Clear
9:53 PM 81.0 °F 86.2 °F 73.9 °F 79% 30.09 in 10.0 mi SE 6.9 mph - N/A   Clear
10:53 PM 80.1 °F 84.5 °F 73.9 °F 81% 30.08 in 10.0 mi SE 5.8 mph - N/A   Clear
11:53 PM 79.0 °F - 73.9 °F 84% 30.08 in 10.0 mi SE 3.5 mph - N/A   Clear